When you browse on this site, cookies collect data to enhance your experience and personalize the content and advertising you see.
Visit our Privacy Policy to learn more. By continuing to use the site, you agree to this use of cookies and data.
  • In United Kingdom
  • List of Countries
  • For 7 days
  • Water Temperature
  • Weather Map
  • Weather Widgets
  • user-avatar
    Login

    Hourly Weather Pylatkivtsi

    Today, 22 August, Thursday

    Time Temperature Precipitation Wind Pressure Humidity
    00:00 +22°C° 0 mm 6 mps 745 mmHg 93%
    01:00 +21°C° 0 mm 5 mps 745 mmHg 93%
    02:00 +19°C° 0 mm 5 mps 746 mmHg 92%
    03:00 +17°C° 0 mm 6 mps 746 mmHg 93%
    04:00 +16°C° 0 mm 5 mps 746 mmHg 93%
    05:00 +15°C° 0 mm 5 mps 746 mmHg 93%
    06:00 +15°C° 0 mm 4 mps 746 mmHg 93%
    07:00 +15°C° 0 mm 4 mps 747 mmHg 89%
    08:00 +17°C° 0 mm 4 mps 747 mmHg 86%
    09:00 +18°C° 0 mm 4 mps 747 mmHg 84%
    10:00 +20°C° 0 mm 4 mps 747 mmHg 81%
    11:00 +21°C° 0 mm 4 mps 747 mmHg 77%
    12:00 +23°C° 0 mm 4 mps 747 mmHg 76%
    13:00 +25°C° 0 mm 4 mps 747 mmHg 72%
    14:00 +25°C° 0 mm 4 mps 747 mmHg 71%
    15:00 +26°C° 0 mm 4 mps 747 mmHg 70%
    16:00 +26°C° 0 mm 4 mps 747 mmHg 70%
    17:00 +26°C° 0 mm 4 mps 747 mmHg 71%
    18:00 +25°C° 0 mm 4 mps 747 mmHg 74%
    19:00 +24°C° 0 mm 3 mps 746 mmHg 80%
    20:00 +21°C° 0 mm 3 mps 747 mmHg 88%
    21:00 +20°C° 0 mm 3 mps 747 mmHg 92%
    22:00 +20°C° 0 mm 3 mps 747 mmHg 95%
    23:00 +19°C° 0 mm 2 mps 747 mmHg 97%

    Tomorrow, 23 August, Friday

    Time Temperature Precipitation Wind Pressure Humidity
    00:00 +18°C° 0 mm 2 mps 747 mmHg 99%
    01:00 +18°C° 0 mm 2 mps 747 mmHg 100%
    02:00 +17°C° 0 mm 2 mps 747 mmHg 100%
    03:00 +17°C° 0 mm 2 mps 747 mmHg 100%
    04:00 +16°C° 0 mm 2 mps 747 mmHg 100%
    05:00 +16°C° 0 mm 2 mps 747 mmHg 100%
    06:00 +16°C° 0 mm 2 mps 747 mmHg 100%
    07:00 +17°C° 0 mm 2 mps 748 mmHg 98%
    08:00 +18°C° 0 mm 3 mps 748 mmHg 97%
    09:00 +19°C° 0 mm 2 mps 748 mmHg 97%
    10:00 +20°C° 0 mm 2 mps 748 mmHg 96%
    11:00 +21°C° 0 mm 3 mps 748 mmHg 93%
    12:00 +21°C° 0 mm 3 mps 749 mmHg 88%
    13:00 +22°C° 0 mm 3 mps 748 mmHg 89%
    14:00 +22°C° 0 mm 4 mps 748 mmHg 87%
    15:00 +22°C° 0 mm 4 mps 748 mmHg 87%
    16:00 +22°C° 0 mm 4 mps 747 mmHg 87%
    17:00 +22°C° 0 mm 4 mps 747 mmHg 88%
    18:00 +22°C° 0 mm 3 mps 747 mmHg 86%
    19:00 +21°C° 0 mm 3 mps 747 mmHg 90%
    20:00 +20°C° 0 mm 2 mps 747 mmHg 92%
    21:00 +20°C° 0 mm 2 mps 748 mmHg 95%
    22:00 +19°C° 0 mm 2 mps 748 mmHg 96%
    23:00 +18°C° 0 mm 2 mps 748 mmHg 98%

    Day after tomorrow, 24 August, Saturday

    Time Temperature Precipitation Wind Pressure Humidity
    00:00 +19°C° 0 mm 1 mps 748 mmHg 100%
    01:00 +17°C° 0 mm 2 mps 748 mmHg 100%
    02:00 +17°C° 0 mm 2 mps 747 mmHg 100%
    03:00 +17°C° 0 mm 2 mps 747 mmHg 100%
    04:00 +16°C° 0 mm 2 mps 747 mmHg 100%
    05:00 +16°C° 0 mm 2 mps 747 mmHg 100%
    06:00 +16°C° 0 mm 1 mps 747 mmHg 100%
    07:00 +18°C° 0 mm 1 mps 747 mmHg 99%
    08:00 +18°C° 0 mm 2 mps 747 mmHg 97%
    09:00 +19°C° 0 mm 2 mps 748 mmHg 96%
    10:00 +21°C° 0 mm 2 mps 748 mmHg 96%
    11:00 +21°C° 0 mm 2 mps 748 mmHg 94%
    12:00 +23°C° 0 mm 2 mps 748 mmHg 86%
    13:00 +22°C° 0 mm 3 mps 748 mmHg 88%
    14:00 +24°C° 0 mm 3 mps 748 mmHg 88%
    15:00 +24°C° 0 mm 3 mps 747 mmHg 87%
    16:00 +24°C° 0 mm 3 mps 747 mmHg 85%
    17:00 +24°C° 0 mm 3 mps 746 mmHg 82%
    18:00 +22°C° 0 mm 3 mps 746 mmHg 84%
    19:00 +21°C° 0 mm 2 mps 746 mmHg 91%
    20:00 +20°C° 0 mm 2 mps 746 mmHg 97%
    21:00 +20°C° 0 mm 2 mps 746 mmHg 97%
    22:00 +19°C° 0 mm 2 mps 746 mmHg 99%
    23:00 +18°C° 0 mm 2 mps 746 mmHg 100%

    25 August, Sunday

    Time Temperature Precipitation Wind Pressure Humidity
    00:00 +18°C° 0 mm 2 mps 746 mmHg 100%
    01:00 +18°C° 0 mm 2 mps 746 mmHg 100%
    02:00 +17°C° 0 mm 2 mps 746 mmHg 100%
    03:00 +17°C° 0 mm 2 mps 746 mmHg 100%
    04:00 +17°C° 0 mm 2 mps 745 mmHg 100%
    05:00 +16°C° 0 mm 2 mps 745 mmHg 100%
    06:00 +17°C° 0 mm 2 mps 745 mmHg 100%
    07:00 +17°C° 0 mm 2 mps 746 mmHg 100%
    08:00 +19°C° 0 mm 2 mps 746 mmHg 98%
    09:00 +20°C° 0 mm 2 mps 746 mmHg 97%
    10:00 +20°C° 0 mm 2 mps 746 mmHg 97%
    11:00 +21°C° 0 mm 2 mps 746 mmHg 97%
    12:00 +23°C° 0 mm 2 mps 746 mmHg 94%
    13:00 +24°C° 0 mm 2 mps 746 mmHg 88%
    14:00 +25°C° 0 mm 3 mps 746 mmHg 85%
    15:00 +25°C° 0 mm 3 mps 746 mmHg 84%
    16:00 +25°C° 0 mm 3 mps 745 mmHg 88%
    17:00 +25°C° 0 mm 4 mps 745 mmHg 89%
    18:00 +24°C° 0 mm 3 mps 745 mmHg 90%
    19:00 +22°C° 0 mm 3 mps 745 mmHg 93%
    20:00 +21°C° 0 mm 3 mps 746 mmHg 95%
    21:00 +21°C° 0 mm 3 mps 746 mmHg 97%
    22:00 +20°C° 0 mm 3 mps 746 mmHg 99%
    23:00 +20°C° 0 mm 2 mps 746 mmHg 99%

    26 August, Monday

    Time Temperature Precipitation Wind Pressure Humidity
    00:00 +19°C° 0 mm 2 mps 746 mmHg 100%
    01:00 +19°C° 0 mm 2 mps 746 mmHg 100%
    02:00 +18°C° 0 mm 2 mps 746 mmHg 100%

    27 August, Tuesday

    Time Temperature Precipitation Wind Pressure Humidity
    Show more